User: anonymous   Login
Location: Asheville, NC
(35.6000°N, 82.5500°W)
Time: 21:47:35
(UTC-04:00)
Language:

AIST 2D - Orbit

View from above orbital plane
View from above orbital plane
View from above satellite
View from above satellite

Ground track
Ground track

The orbit data is extracted from the following two-line orbital elements,

1 41465U 16026B   18115.57116066  .00002139  00000-0  70345-4 0  9991
2 41465  97.2270  16.4104 0011431 174.9893 299.3849 15.32551957111286
Epoch (UTC): 25 April 2018 13:42:28
Eccentricity: 0.0011431
inclination: 97.2270°
perigee height: 460 km
apogee height: 476 km
right ascension of ascending node: 16.4104°
argument of perigee: 174.9893°
revolutions per day: 15.32551957
mean anomaly at epoch: 299.3849°
orbit number at epoch: 11128

The dashed part of the orbit path shows where the satellite is in the earth's shadow,  

DLR